| time (UTC) | temp F | wind direction | speed MPH | gust MPH | rain 1hr in | rain 24hr in | rain mn in | humidity % | barometer mb |
| 20260504005705 | 53 | 355 | 13.0 | 22.0 | 0.00 | 0.00 | 0.00 | 46 | 1008.7 |
| 20260504005026 | 0 | 355 | 14.0 | 14.0 | 0.00 | 0.00 | 0.00 | ||
| 20260504004239 | 52 | 355 | 12.0 | 22.0 | 0.00 | 0.00 | 0.00 | 49 | 1008.6 |
| 20260504003557 | 52 | 356 | 11.0 | 21.0 | 0.00 | 0.00 | 0.00 | 50 | 1008.6 |
| 20260504002917 | 52 | 355 | 10.0 | 22.0 | 0.00 | 0.00 | 0.00 | 52 | 1008.6 |
| 20260504002236 | 51 | 355 | 10.0 | 17.0 | 0.00 | 0.00 | 0.00 | 53 | 1008.7 |
| 20260504001557 | 51 | 357 | 9.0 | 20.0 | 0.00 | 0.00 | 0.00 | 54 | 1008.7 |
| 20260504000917 | 51 | 357 | 10.0 | 19.0 | 0.00 | 0.00 | 0.00 | 53 | 1008.7 |
| 20260504000237 | 0 | 358 | 10.0 | 14.0 | 0.00 | 0.00 | 0.00 | ||
| 20260503235447 | 0 | 355 | 9.0 | 8.0 | 0.00 | 0.00 | 0.00 | ||
| 20260503234656 | 51 | 356 | 9.0 | 15.0 | 0.00 | 0.00 | 0.00 | 56 | 1008.7 |
| 20260503234016 | 51 | 355 | 9.0 | 14.0 | 0.00 | 0.00 | 0.00 | 57 | 1008.8 |
| 20260503233337 | 0 | 356 | 6.0 | 5.0 | 0.00 | 0.00 | 0.00 | ||
| 20260503232547 | 0 | 357 | 8.0 | 7.0 | 0.00 | 0.00 | 0.00 | ||
| 20260503231646 | 49 | 357 | 7.0 | 11.0 | 0.00 | 0.00 | 0.00 | 64 | 1008.8 |
| 20260503231007 | 0 | 356 | 8.0 | 3.0 | 0.00 | 0.00 | 0.00 | ||
| 20260503230219 | 0 | 356 | 8.0 | 7.0 | 0.00 | 0.00 | 0.00 | ||
| 20260503225210 | 49 | 357 | 7.0 | 10.0 | 0.00 | 0.00 | 0.00 | 63 | 1009.1 |
| 20260503224203 | 50 | 357 | 9.0 | 15.0 | 0.00 | 0.00 | 0.00 | 61 | 1009.1 |
| 20260503223522 | 0 | 357 | 10.0 | 8.0 | 0.00 | 0.00 | 0.00 | ||
| 20260503222733 | 0 | 358 | 9.0 | 8.0 | 0.00 | 0.00 | 0.00 | ||
| 20260503221835 | 0 | 357 | 9.0 | 11.0 | 0.00 | 0.00 | 0.00 | ||
| 20260503221042 | 50 | 357 | 9.0 | 19.0 | 0.00 | 0.00 | 0.00 | 61 | 1009.4 |
| 20260503220403 | 0 | 356 | 10.0 | 10.0 | 0.00 | 0.00 | 0.00 | ||
| 20260503215612 | 50 | 356 | 11.0 | 21.0 | 0.00 | 0.00 | 0.00 | 59 | 1009.3 |
| 20260503214933 | 50 | 357 | 12.0 | 20.0 | 0.00 | 0.00 | 0.00 | 60 | 1009.2 |
| 20260503214252 | 50 | 357 | 9.0 | 20.0 | 0.00 | 0.00 | 0.00 | 61 | 1009.1 |
| 20260503213614 | 0 | 355 | 10.0 | 7.0 | 0.00 | 0.00 | 0.00 | ||
| 20260503212825 | 0 | 356 | 13.0 | 18.0 | 0.00 | 0.00 | 0.00 | ||
| 20260503212034 | 50 | 356 | 12.0 | 24.0 | 0.00 | 0.00 | 0.00 | 57 | 1008.9 |
| 20260503211354 | 50 | 356 | 13.0 | 22.0 | 0.00 | 0.00 | 0.00 | 57 | 1008.8 |
| 20260503210715 | 50 | 355 | 14.0 | 22.0 | 0.00 | 0.00 | 0.00 | 56 | 1008.9 |
| 20260503210035 | 0 | 356 | 13.0 | 17.0 | 0.00 | 0.00 | 0.00 | ||
| 20260503205130 | 51 | 354 | 12.0 | 26.0 | 0.00 | 0.00 | 0.00 | 54 | 1009.0 |
| 20260503204450 | 50 | 355 | 16.0 | 15.0 | 0.00 | 0.00 | 0.00 | 55 | 1009.0 |
| 20260503203658 | 50 | 356 | 15.0 | 24.0 | 0.00 | 0.00 | 0.00 | 55 | 1009.0 |
| 20260503203019 | 50 | 354 | 14.0 | 24.0 | 0.00 | 0.00 | 0.00 | 54 | 1009.1 |
| 20260503202340 | 0 | 357 | 13.0 | 15.0 | 0.00 | 0.00 | 0.00 | ||
| 20260503201438 | 50 | 356 | 11.0 | 22.0 | 0.00 | 0.00 | 0.00 | 56 | 1009.4 |
| 20260503200758 | 51 | 356 | 12.0 | 23.0 | 0.00 | 0.00 | 0.00 | 53 | 1009.4 |
| 20260503200122 | 51 | 355 | 12.0 | 23.0 | 0.00 | 0.00 | 0.00 | 53 | 1009.5 |
| 20260503195440 | 0 | 358 | 12.0 | 15.0 | 0.00 | 0.00 | 0.00 | ||
| 20260503194527 | 51 | 356 | 11.0 | 18.0 | 0.00 | 0.00 | 0.00 | 52 | 1009.9 |
| 20260503193847 | 52 | 357 | 11.0 | 20.0 | 0.00 | 0.00 | 0.00 | 51 | 1010.0 |
| 20260503193207 | 51 | 355 | 11.0 | 20.0 | 0.00 | 0.00 | 0.00 | 52 | 1010.2 |
| 20260503192527 | 51 | 356 | 10.0 | 18.0 | 0.00 | 0.00 | 0.00 | 53 | 1010.3 |
| 20260503191847 | 0 | 356 | 15.0 | 15.0 | 0.00 | 0.00 | 0.00 | ||
| 20260503191055 | 50 | 357 | 10.0 | 20.0 | 0.00 | 0.00 | 0.00 | 54 | 1010.5 |
| 20260503190415 | 50 | 356 | 10.0 | 22.0 | 0.00 | 0.00 | 0.00 | 52 | 1010.5 |
| 20260503185734 | 50 | 356 | 12.0 | 22.0 | 0.00 | 0.00 | 0.00 | 53 | 1010.6 |
| 20260503185055 | 50 | 356 | 11.0 | 20.0 | 0.00 | 0.00 | 0.00 | 53 | 1010.6 |
| 20260503184414 | 51 | 356 | 11.0 | 20.0 | 0.00 | 0.00 | 0.00 | 51 | 1010.7 |
| 20260503183735 | 51 | 356 | 9.0 | 19.0 | 0.00 | 0.00 | 0.00 | 50 | 1010.7 |
| 20260503183055 | 51 | 358 | 10.0 | 18.0 | 0.00 | 0.00 | 0.00 | 49 | 1010.7 |
| 20260503182415 | 51 | 356 | 11.0 | 18.0 | 0.00 | 0.00 | 0.00 | 47 | 1010.8 |
| 20260503181734 | 51 | 356 | 7.0 | 12.0 | 0.00 | 0.00 | 0.00 | 44 | 1010.9 |
| 20260503181055 | 0 | 355 | 8.0 | 11.0 | 0.00 | 0.00 | 0.00 | ||
| 20260503180312 | 52 | 357 | 8.0 | 16.0 | 0.00 | 0.00 | 0.00 | 41 | 1011.1 |
| 20260503175628 | 51 | 355 | 8.0 | 15.0 | 0.00 | 0.00 | 0.00 | 45 | 1011.3 |
| 20260503174948 | 51 | 357 | 7.0 | 15.0 | 0.00 | 0.00 | 0.00 | 45 | 1011.4 |
| 20260503174309 | 51 | 355 | 7.0 | 14.0 | 0.00 | 0.00 | 0.00 | 44 | 1011.5 |
| 20260503173630 | 50 | 357 | 7.0 | 4.0 | 0.00 | 0.00 | 0.00 | 48 | 1011.6 |
| 20260503172841 | 50 | 358 | 7.0 | 6.0 | 0.00 | 0.00 | 0.00 | 49 | 1011.8 |
| 20260503172049 | 50 | 356 | 7.0 | 14.0 | 0.00 | 0.00 | 0.00 | 47 | 1011.9 |
| 20260503171408 | 49 | 355 | 8.0 | 14.0 | 0.00 | 0.00 | 0.00 | 50 | 1012.1 |
| 20260503170729 | 50 | 356 | 8.0 | 17.0 | 0.00 | 0.00 | 0.00 | 47 | 1012.2 |
| 20260503150448 | 46 | 356 | 11.0 | 20.0 | 0.00 | 0.00 | 0.00 | 67 | 1013.3 |
| 20260503140228 | 46 | 356 | 12.0 | 20.0 | 0.00 | 0.00 | 0.00 | 67 | 1013.3 |
| 20260503130908 | 0 | 356 | 12.0 | 12.0 | 0.00 | 0.00 | 0.00 | ||
| 20260503130119 | 0 | 357 | 10.0 | 13.0 | 0.00 | 0.00 | 0.00 | ||
| 20260503110617 | 39 | 357 | 4.0 | 8.0 | 0.00 | 0.00 | 0.00 | 71 | 1013.3 |
| 20260503081256 | 42 | 357 | 5.0 | 10.0 | 0.00 | 0.00 | 0.00 | 47 | 1013.4 |
| 20260503080615 | 42 | 356 | 5.0 | 10.0 | 0.00 | 0.00 | 0.00 | 45 | 1013.4 |
| 20260503072615 | 43 | 356 | 6.0 | 11.0 | 0.00 | 0.00 | 0.00 | 44 | 1013.3 |
| 20260503071936 | 43 | 356 | 8.0 | 12.0 | 0.00 | 0.00 | 0.00 | 43 | 1013.3 |
| 20260503071256 | 43 | 356 | 6.0 | 12.0 | 0.00 | 0.00 | 0.00 | 41 | 1013.3 |
| 20260503070627 | 43 | 357 | 4.0 | 11.0 | 0.00 | 0.00 | 0.00 | 42 | 1013.3 |
| 20260503054505 | 0 | 357 | 0.0 | 6.0 | 0.00 | 0.00 | 0.00 | ||
| 20260503053716 | 39 | 358 | 2.0 | 7.0 | 0.00 | 0.00 | 0.00 | 70 | 1013.7 |
| 20260503053036 | 40 | 356 | 4.0 | 8.0 | 0.00 | 0.00 | 0.00 | 66 | 1013.7 |
| 20260503052358 | 0 | 357 | 6.0 | 7.0 | 0.00 | 0.00 | 0.00 | ||
| 20260503051608 | 0 | 357 | 4.0 | 5.0 | 0.00 | 0.00 | 0.00 | ||
| 20260503050820 | 42 | 357 | 5.0 | 10.0 | 0.00 | 0.00 | 0.00 | 60 | 1013.9 |
| 20260503050139 | 42 | 355 | 6.0 | 10.0 | 0.00 | 0.00 | 0.00 | 61 | 1013.9 |
| 20260503045459 | 42 | 357 | 5.0 | 10.0 | 0.00 | 0.00 | 0.00 | 61 | 1014.0 |
| 20260503044819 | 42 | 358 | 1.0 | 7.0 | 0.00 | 0.00 | 0.00 | 63 | 1014.0 |
| 20260503044140 | 42 | 357 | 6.0 | 5.0 | 0.00 | 0.00 | 0.00 | 60 | 1014.0 |
| 20260503043129 | 42 | 357 | 4.0 | 10.0 | 0.00 | 0.00 | 0.00 | 62 | 1014.1 |
| 20260503042450 | 42 | 356 | 5.0 | 7.0 | 0.00 | 0.00 | 0.00 | 63 | 1014.2 |
| 20260503041216 | 0 | 356 | 6.0 | 2.0 | 0.00 | 0.00 | 0.00 | ||
| 20260503040424 | 0 | 358 | 6.0 | 6.0 | 0.00 | 0.00 | 0.00 | ||
| 20260503035416 | 0 | 356 | 4.0 | 2.0 | 0.00 | 0.00 | 0.00 | ||
| 20260503034625 | 0 | 357 | 5.0 | 6.0 | 0.00 | 0.00 | 0.00 | ||
| 20260503033721 | 42 | 357 | 4.0 | 10.0 | 0.00 | 0.00 | 0.00 | 61 | 1014.3 |
| 20260503033041 | 0 | 357 | 5.0 | 4.0 | 0.00 | 0.00 | 0.00 | ||
| 20260503032255 | 41 | 358 | 1.0 | 7.0 | 0.00 | 0.00 | 0.00 | 67 | 1014.3 |
| 20260503031621 | 0 | 355 | 3.0 | 9.0 | 0.00 | 0.00 | 0.00 | ||
| 20260503030657 | 0 | 357 | 5.0 | 4.0 | 0.00 | 0.00 | 0.00 | ||
| 20260503025909 | 0 | 357 | 3.0 | 6.0 | 0.00 | 0.00 | 0.00 | ||
| 20260503025010 | 0 | 356 | 4.0 | 8.0 | 0.00 | 0.00 | 0.00 | ||
| 20260503024220 | 41 | 356 | 5.0 | 4.0 | 0.00 | 0.00 | 0.00 | 64 | 1014.5 |
| 20260503023432 | 0 | 359 | 2.0 | 2.0 | 0.00 | 0.00 | 0.00 | ||
| 20260503022640 | 42 | 357 | 2.0 | 8.0 | 0.00 | 0.00 | 0.00 | 62 | 1014.6 |
| 20260503021959 | 42 | 358 | 4.0 | 8.0 | 0.00 | 0.00 | 0.00 | 60 | 1014.6 |
| 20260503021320 | 42 | 357 | 5.0 | 4.0 | 0.00 | 0.00 | 0.00 | 59 | 1014.7 |
| 20260503020532 | 0 | 356 | 8.0 | 7.0 | 0.00 | 0.00 | 0.00 | ||
| 20260503015711 | 42 | 356 | 2.0 | 8.0 | 0.00 | 0.00 | 0.00 | 54 | 1014.7 |
| 20260503015029 | 42 | 358 | 3.0 | 8.0 | 0.00 | 0.00 | 0.00 | 55 | 1014.7 |
| 20260503014351 | 0 | 358 | 4.0 | 7.0 | 0.00 | 0.00 | 0.00 | ||
| 20260503013448 | 42 | 357 | 1.0 | 8.0 | 0.00 | 0.00 | 0.00 | 55 | 1014.7 |
| 20260503012808 | 42 | 357 | 2.0 | 7.0 | 0.00 | 0.00 | 0.00 | 55 | 1014.8 |
| 20260503012128 | 42 | 358 | 1.0 | 9.0 | 0.00 | 0.00 | 0.00 | 54 | 1014.7 |
| 20260503011447 | 42 | 356 | 5.0 | 9.0 | 0.00 | 0.00 | 0.00 | 56 | 1014.7 |
| 20260503010808 | 0 | 357 | 7.0 | 2.0 | 0.00 | 0.00 | 0.00 |